Flag for U.S.A. Weather past 2 weeks in Milwaukee, Wisconsin, U.S.A.

Now
63 °F

Sunny.


Feels Like: 63 °F
Forecast: 60 / 69 °F
Wind: 6 mph from Southeast

Location: Milwaukee / Timmerman

Current Time: Aug 28, 2014 at 9:02:23 AM

Latest Report: Aug 28, 2014 at 7:45 AM


Visibility: 10 mi

Pressure: 30.17 "Hg

Humidity: 77%

Dew point: 55 °F

Location of MilwaukeeLocation

Historic Weather in Milwaukee — Graph

°F

Milwaukee temperature yesterday

Maximum temperature yesterday: 72 °F (at 11:45 AM)
Minimum temperature yesterday: 57 °F (at 11:55 PM)
Average temperature yesterday: 64 °F

Past Weeks' High & Low Weather Summary

 TemperatureHumidityPressure
High82 °F (Aug 16, 3:45 PM)94% (Aug 17, 1:55 AM)30.19 "Hg (Aug 17, 1:55 AM)
Low52 °F (Aug 14, 4:55 AM)31% (Aug 14, 1:45 PM)29.68 "Hg (Aug 19, 1:45 PM)
Average67 °F78%29.98 "Hg
* Reported Aug 13 7:45 AM — Aug 28 7:45 AM, Milwaukee, Weather by CustomWeather, © 2014

Note: Actual official high and low records may vary slightly from our data, if they occured in-between our weather recording intervals... More about our weather records

Advertising

Milwaukee weather history for previous 24 hours

 ConditionsComfort  
Time TempWeatherWind HumidityBarometerVisibility
7:45 AM
Aug 28
63 °FSunny.6 mph77%30.17 "Hg10 mi
6:45 AM55 °FClear.No wind94%30.16 "Hg10 mi
6:35 AM54 °FClear.No wind94%30.16 "Hg10 mi
6:15 AM55 °FClear.No wind88%30.15 "Hg10 mi
5:55 AM55 °FClear.No wind88%30.15 "Hg10 mi
5:35 AM54 °FClear.No wind94%30.15 "Hg10 mi
5:15 AM54 °FClear.No wind94%30.15 "Hg10 mi
4:55 AM55 °FClear.No wind88%30.15 "Hg10 mi
4:35 AM55 °FClear.No wind88%30.15 "Hg10 mi
4:15 AM55 °FClear.No wind94%30.16 "Hg10 mi
3:55 AM55 °FClear.No wind94%30.16 "Hg10 mi
3:35 AM55 °FClear.No wind94%30.16 "Hg10 mi
3:15 AM57 °FClear.No wind88%30.17 "Hg10 mi
2:55 AM57 °FClear.No wind88%30.17 "Hg10 mi
2:35 AM57 °FClear.No wind88%30.17 "Hg10 mi
2:15 AM57 °FClear.No wind88%30.16 "Hg10 mi
1:55 AM59 °FPassing clouds.No wind82%30.17 "Hg10 mi
1:15 AM59 °FClear.No wind82%30.17 "Hg10 mi
12:55 AM59 °FClear.No wind82%30.17 "Hg10 mi
12:35 AM59 °FClear.No wind82%30.17 "Hg10 mi
12:15 AM59 °FClear.No wind82%30.17 "Hg10 mi
11:55 PM
Aug 27
57 °FClear.No wind88%30.17 "Hg10 mi
11:15 PM63 °FClear.No wind73%30.16 "Hg10 mi
10:55 PM63 °FClear.No wind73%30.17 "Hg10 mi
10:35 PM63 °FClear.No wind73%30.16 "Hg10 mi
10:15 PM63 °FClear.No wind73%30.16 "Hg10 mi
9:55 PM63 °FClear.No wind73%30.15 "Hg10 mi
9:15 PM63 °FClear.No wind77%30.15 "Hg10 mi
8:45 PM64 °FClear.No wind78%30.14 "Hg10 mi
7:45 PM66 °FSunny.6 mph73%30.13 "Hg10 mi
5:45 PM70 °FSunny.7 mph64%30.14 "Hg10 mi
4:45 PM72 °FSunny.6 mph65%30.16 "Hg10 mi
3:45 PM72 °FBroken clouds.6 mph65%30.17 "Hg10 mi
2:45 PM72 °FBroken clouds.6 mph61%30.18 "Hg10 mi
1:45 PM72 °FScattered clouds.7 mph61%30.18 "Hg10 mi
12:45 PM72 °FScattered clouds.7 mph65%30.18 "Hg10 mi
11:45 AM72 °FPartly sunny.6 mph65%30.19 "Hg10 mi
10:45 AM70 °FScattered clouds.5 mph64%30.18 "Hg10 mi
9:45 AM70 °FScattered clouds.6 mph69%30.18 "Hg10 mi
Weather by CustomWeather, © 2014

See weather overviewHow to use our weather pages